Regional Weather Roundup
Issued by NWS Columbia, SC

Home | Current Version | Previous Version | Text Only | Print | Product List | Glossary On
Versions: 1 2 3 4 5 6 7 8 9 10 11 12 13 14 15 16 17 18 19 20 21 22 23 24 25 26 27 28
000
ASUS42 KCAE 271510
RWRCAE
REGIONAL WEATHER ROUNDUP
NATIONAL WEATHER SERVICE COLUMBIA SC
1100 AM EDT SAT MAY 27 2017

NOTE: "FAIR" INDICATES FEW OR NO CLOUDS BELOW 12,000 FEET WITH NO
SIGNIFICANT WEATHER AND/OR OBSTRUCTIONS TO VISIBILITY.

NOT ALL STATIONS ARE QUALITY CONTROLLED BY THE NATIONAL
WEATHER SERVICE. USE DATA WITH CAUTION...ESPECIALLY
DEWPOINT OBSERVATIONS.

SCZ001>056-GAZ040-063>065-077-271600-
...UPSTATE SOUTH CAROLINA...

CITY           SKY/WX    TMP DP  RH WIND       PRES   REMARKS
ANDERSON       SUNNY     79  64  60 W9        30.02S
SPARTANBURG    SUNNY     79  63  57 SW12G17   30.00S
CLEMSON        SUNNY     81  64  56 SW8       30.03S
GREENVILLE     SUNNY     81  64  56 W14       30.03R
GREENWOOD      SUNNY     80  64  58 W9        30.03S
GREER          SUNNY     79  65  62 W12       30.01R
ROCK HILL      SUNNY     80  65  59 W9        29.99S
CHESTER        SUNNY     79  63  57 W9        30.00R
LAURENS        SUNNY     79  64  61 SW12G17   30.01R


...CENTRAL SOUTH CAROLINA...

CITY           SKY/WX    TMP DP  RH WIND       PRES   REMARKS
COLUMBIA APT   MOSUNNY   86  63  45 W17G23    29.98S
COLUMBIA OWENS SUNNY     86  62  44 W15G22    29.99F
MCENTIRE ANGB  SUNNY     85  64  49 W9        29.98F
ORANGEBURG     SUNNY     82  65  56 W9        30.00S
SUMTER SHAW    SUNNY     82  65  55 W13       29.96F
NEWBERRY       SUNNY     81  66  61 SW13G18   30.04R
AIKEN          FAIR      82  63  51 SW16      30.05S
BARNWELL       FAIR      86  66  51 W9G17     30.01F
MANNING        FAIR      79  70  73 SW17      30.00S
CAMDEN         FAIR      84  64  51 SW15G21   29.98F
LANCASTER      SUNNY     81  66  61 SW10      29.98F
WINNSBORO      SUNNY     81  64  57 SW10      29.99F


...EASTERN AND COASTAL SOUTH CAROLINA...

CITY           SKY/WX    TMP DP  RH WIND       PRES   REMARKS
MYRTLE BEACH   SUNNY     82  64  54 W8        29.99F
N MYRTLE BCH   SUNNY     80  68  66 S10       29.98F
CONWAY         FAIR      81  66  61 SW8       29.98F HAZE
MARION         FAIR      81  64  57 W10       29.97F
HARTSVILLE     FAIR      81  64  57 SW8       29.97S
FLORENCE       SUNNY     83  66  56 W12       29.97F
DARLINGTON     PTSUNNY   82  67  60 W10G20    29.97F
CHARLESTON APT SUNNY     83  63  50 VRB7      30.01F
MOUNT PLEASANT FAIR      82  64  54 S8        30.01F
WALTERBORO     SUNNY     82  63  51 W9        30.03S
BEAUFORT       SUNNY     84  65  52 W12       30.03S


...EASTERN GEORGIA...

CITY           SKY/WX    TMP DP  RH WIND       PRES   REMARKS
AUGUSTA BUSH F SUNNY     87  64  46 W8        30.00F
AUGUSTA DANIEL SUNNY     84  61  45 W12G18    30.02F
THOMSON        SUNNY     82  64  54 NW10      30.08S
WASHINGTON     FAIR      82  68  61 W9        30.04R
CLAXTON        FAIR      82  69  65 SW5       30.05S
SYLVANIA       SUNNY     83  68  59 W5        30.05S
STATESBORO     SUNNY     83  65  55 W9        30.04S
SAVANNAH       MOSUNNY   86  61  42 W9        30.04F


...SOUTHERN NORTH CAROLINA...

CITY           SKY/WX    TMP DP  RH WIND       PRES   REMARKS
CHARLOTTE      PTSUNNY   82  64  54 W12       29.98S
MONROE         SUNNY     80  63  55 W12       29.97R
WADESBORO      SUNNY     82  64  55 SW7       29.96S
ROCKINGHAM     SUNNY     79  66  64 SW6       29.97S
RUTHERFORDTON  MOSUNNY   78  65  63 CALM      30.01S
ASHEVILLE      SUNNY     74  58  57 VRB3      30.05F

$$




USA.gov is the U.S. government's official web portal to all federal, state and local government web resources and services.